CZ-4 DEB, 26155

Orbit data source: Space-Track

CZ-4 DEB, 26155 is space debris in SSO originally from a launch on Thu, 14 Oct 1999 UTC launched from the Taiyaun Space Center, China (TSC). Debris objects in space refer to the collection of defunct objects orbiting the Earth. Examples of debris include non-operational satellites, rocket bodies, and fragments generated from explosions, collisions, or faulty payload assembly.

Loading next visibility...
Identifier
26155, 1999-057AR
Orbit
SSO
Country
Flag of CNCN / PRC
Related business
Manufacturer
Unknown
Mission
Spacecraft
Bus & Motor
Unknown
Mass
Unknown
Launch date (UTC)
1999-10-14 (27 years ago)
Launch vehicle
Unknown
Launch site
Taiyaun Space Center, China (TSC)
Object type
Payload
Rocket body
Debris
Shape & HBR
Unknown shape, 0.1 m
Radar Cross Section
Medium (>0.1 m² and <1 m²)

Expand to show TLE details & history
Last TLE update: 1 day ago

TLE from 1 day ago
0 CZ-4 DEB
1 26155U 99057AR  26171.12171551  .00006136  00000-0  10417-2 0  9990
2 26155  98.5368 236.6696 0120794 123.6737 267.7200 14.64826032369840
Epoch: 2026-06-20T02:55Z
TLE epoch observation values (Epoch: 2026-06-20T02:55:16.220Z)
Latitude
29.69713°
Longitude
-80.37345°
Altitude
685.805 km
Speed
7.514 km/s
True Right ascension
15h 27m 08s
True Declination
29° 32' 52"
Sunlit
Object was in full shadow at epoch
Visualization orbit readout
Latitude
Unknown
Longitude
Unknown
Altitude
Unknown
Speed
Unknown
Apparent Right ascension
Unknown
Apparent Declination
Unknown
Sunlit
N/A
Visualization observer readout
Local Sidereal Time
16:18:20
Azimuth
Unknown
Elevation
Unknown
Doppler factor
Unknown
Orbital elements
Apogee altitude
759.918 km
Perigee altitude
589.53 km
Semi-major axis
7,052.861 km
Eccentricity
0.01208
Inclination
98.5368°
RAAN
236.6696°
Arg. of periapsis
123.6737°
True anomaly
266.33786°
Mean anomaly
267.72°
Eccentric anomaly
267.02883°
Mean motion
3.66434 °/min
Orbital period
98.24 mins
BSTAR
0.0010417
Loading maneuver chart data...
Computing Atmospheric mass density...

Documentation

Showing up to 5 results
|